Weather observations for the past three days for
Zapata, TX
Metric (Imperial)
Date Time (cdt) Wind (kph) Vis. (km) Weather Sky Cond. Temperature (ºC) Relative Humidity Wind Chill (°C) Heat Index (°C) Pressure Precipitation (cm)
Air Dwpt 6 hour altimeter (cm) sea level (mb) 1 hr 3 hr 6 hr
Max. Min.
07 01:55 E 7 8.05 Fog/Mist CLR 26.3 24.5 90% 29 75.87 0.0
07 01:35 E 7 8.05 Fog/Mist CLR 26.6 24.1 86% 29 75.87 0.0
07 01:15 E 6 8.05 Fair with Haze CLR 27 24 84% 30 75.84 0.0
07 00:55 E 7 8.05 Fair with Haze CLR 27.1 24 34.1 27.1 83% 30 75.84 0.0
07 00:35 E 13 8.05 Fair with Haze CLR 27.5 24.1 82% 31 75.84 0.0
07 00:15 E 11 11.27 Fair CLR 27.7 24.1 81% 31 75.84 0.0
06 23:35 E 17 11.27 Fair CLR 28.5 24.2 78% 33 75.84 0.0
06 23:15 E 9 8.05 Fair with Haze CLR 28.8 24 75% 33 75.82 0.0
06 22:55 E 11 8.05 Fair with Haze CLR 29.1 24 74% 34 75.79 0.0
06 22:35 E 11 8.05 Fair with Haze CLR 29.3 23.7 72% 34 75.77 0.0
06 22:15 E 13 8.05 Fair with Haze CLR 29.7 23.5 69% 34 75.77 0.0
06 21:55 E 15 8.05 Fair with Haze CLR 30 23.2 67% 34 75.74 0.0
06 21:35 E 13 11.27 Fair CLR 30.2 22.8 65% 34 75.72 0.0
06 20:55 E 7 11.27 Fair CLR 31 22.6 61% 35 75.67 0.0
06 20:35 E 7 11.27 Fair CLR 31.3 22.3 59% 35 75.64 0.0
06 20:15 E 11 11.27 Fair CLR 31.8 21.8 55% 35 75.62 0.0
06 19:55 E 13 11.27 Fair CLR 32.3 22 55% 36 75.57 0.0
06 19:35 E 17 11.27 Fair CLR 33 22 52% 37 75.54 0.0
06 19:15 E 17 11.27 Fair CLR 34 22.1 50% 38 75.51 0.0
06 18:55 E 17 G 30 11.27 Fair CLR 34.4 22 36.3 29.8 48% 39 75.49 0.0
06 18:35 E 15 G 26 11.27 Fair CLR 34.8 21.5 46% 39 75.46 0.0
06 18:15 E 15 G 28 11.27 Fair CLR 35.3 21.5 45% 39 75.44 0.0
06 17:55 NE 17 G 26 11.27 Fair CLR 35.9 20.3 40% 39 75.41 0.0
06 17:35 NE 19 G 28 11.27 Fair CLR 36 20.7 41% 39 75.41 0.0
06 17:15 NE 13 G 31 11.27 Fair CLR 35.9 20.1 40% 39 75.41 0.0
06 17:00 NE 19 G 26 11.27 Fair CLR 36.2 20.7 40% 40 75.44 0.0
06 16:35 NE 17 11.27 Fair CLR 35.5 21.2 43% 39 75.44 0.0
06 16:15 N 13 11.27 Fair CLR 35.6 21.5 44% 40 75.46 0.0
06 15:55 NE 13 8.05 Fair with Haze CLR 35.5 21.6 44% 40 75.49 0.0
06 15:35 N 15 8.05 Mostly Cloudy with Haze BKN041 35.1 21.8 46% 39 75.51 0.0
06 15:15 N 7 G 15 8.05 Mostly Cloudy with Haze BKN039 34.3 22.1 49% 39 75.54 0.0
06 14:55 NE 9 8.05 Mostly Cloudy with Haze BKN037 BKN049 33.4 22.5 53% 38 75.57 0.0
06 14:35 N 11 8.05 Mostly Cloudy with Haze BKN034 BKN049 33 22.5 54% 37 75.59 0.0
06 14:15 E 13 8.05 Partly Cloudy with Haze SCT032 33.2 22.5 53% 38 75.59 0.0
06 13:55 N 6 8.05 Mostly Cloudy with Haze BKN030 32.2 22.7 57% 37 75.62 0.0
06 13:35 Calm 6.44 Mostly Cloudy with Haze BKN030 31.9 22.6 58% 36 75.64 0.0
06 13:15 Calm 6.44 Overcast with Haze OVC028 30.6 22.7 63% 35 75.67 0.0
06 12:55 Calm 6.44 Overcast with Haze OVC028 29.7 22.5 30 26.5 65% 33 75.67 0.0
06 12:35 Calm 6.44 Overcast with Haze OVC028 30 22.7 65% 34 75.69 0.0
06 12:15 Calm 6.44 Overcast with Haze SCT021 OVC028 29.6 22.7 66% 33 75.67 0.0
06 11:35 Calm 4.83 Overcast with Haze BKN021 OVC028 28.6 22.7 70% 32 75.67 0.0
06 11:15 Calm 4.83 Overcast with Haze OVC021 28.2 22.8 73% 31 75.67 0.0
06 10:50 S 7 4.83 Overcast with Haze OVC019 28 22.7 73% 31 75.67 0.0
06 10:35 S 7 4.83 Overcast with Haze OVC019 27.8 22.6 73% 31 75.64 0.0
06 10:15 S 7 4.83 Overcast with Haze OVC021 27.8 22.5 73% 31 75.64 0.0
06 09:55 S 9 4.83 Overcast with Haze OVC019 27.6 22.5 74% 30 75.62 0.0
06 09:35 SE 9 4.83 Overcast with Haze OVC019 27.7 22.4 73% 30 75.62 0.0
06 09:15 SE 11 4.83 Overcast with Haze OVC019 27.5 22.5 74% 30 75.62 0.0
06 08:55 E 11 4.83 Overcast with Haze OVC021 27.5 22.5 74% 30 75.59 0.0
06 08:35 SE 13 4.83 Overcast with Haze OVC021 27.5 22.5 74% 30 75.59 0.0
06 08:15 SE 15 4.83 Mostly Cloudy with Haze BKN021 27.1 22.5 76% 30 75.57 0.0
06 07:55 SE 11 6.44 Overcast with Haze OVC021 26.8 22.5 77% 29 75.54 0.0
06 07:35 E 7 6.44 Overcast with Haze OVC021 26.6 22.5 78% 29 75.57 0.0
06 07:15 E 6 4.83 Overcast with Haze OVC019 26.5 22.3 78% 29 75.54 0.0
06 06:55 E 6 8.05 Overcast with Haze OVC019 26.5 22.2 27.2 26.5 77% 28 75.54 0.0
06 06:35 Calm 8.05 Overcast with Haze OVC019 26.7 22.2 76% 29 75.51 0.0
06 06:15 Calm 8.05 Overcast with Haze OVC019 26.7 22.2 76% 29 75.51 0.0
06 05:55 SE 6 8.05 Overcast with Haze OVC019 26.7 22.1 76% 29 75.51 0.0
06 05:35 SE 6 8.05 Overcast with Haze OVC019 26.6 22.1 76% 29 75.49 0.0
06 05:15 E 7 8.05 Overcast with Haze OVC021 26.6 22.1 76% 29 75.46 0.0
06 04:55 SE 6 8.05 Overcast with Haze OVC021 26.6 22.1 76% 29 75.46 0.0
06 04:35 SE 9 11.27 Overcast OVC021 26.8 22.1 75% 29 75.46 0.0
06 04:15 SE 11 11.27 Overcast OVC019 26.9 22.1 75% 29 75.44 0.0
06 03:55 SE 11 11.27 Overcast OVC019 27 22.2 75% 29 75.44 0.0
06 03:35 SE 11 11.27 Overcast OVC019 27 22.3 76% 29 75.46 0.0
06 03:15 SE 11 11.27 Overcast OVC019 27 22.2 75% 29 75.46 0.0
06 02:55 SE 13 11.27 Overcast OVC019 27 22.3 76% 29 75.46 0.0
06 02:35 SE 15 G 31 11.27 Overcast OVC019 27.1 22.3 75% 29 75.46 0.0
06 02:15 SE 20 G 31 11.27 Overcast OVC019 27.1 22.3 75% 29 75.46 0.0
06 01:55 SE 13 11.27 Overcast OVC019 27.1 22.3 75% 29 75.46 0.0
06 01:35 SE 17 G 33 11.27 Overcast OVC019 27.1 22.3 75% 29 75.46 0.0
06 01:15 SE 19 G 28 11.27 Overcast OVC019 27.2 22.3 75% 30 75.46 0.0
06 00:55 SE 20 G 31 11.27 Overcast OVC019 27.2 22.3 35.7 27 75% 30 75.46 0.0
06 00:35 SE 22 G 31 11.27 Overcast OVC019 27.3 22.3 74% 30 75.46 0.0
06 00:15 SE 17 G 39 11.27 Overcast OVC019 27.3 22.3 74% 30 75.46 0.0
05 23:55 SE 19 G 30 11.27 Overcast OVC019 27.2 22.3 75% 30 75.49 0.0
05 23:35 SE 19 G 33 11.27 Mostly Cloudy BKN019 27.1 22.2 75% 29 75.49 0.0
05 23:15 SE 19 G 31 16.09 Fair CLR 27.1 22.2 75% 29 75.49 0.0
05 22:55 SE 22 G 37 16.09 Fair CLR 27.5 22.2 73% 30 75.46 0.0
05 22:35 SE 24 G 31 16.09 Fair CLR 28 22.3 71% 31 75.46 0.0
05 22:15 SE 22 G 33 16.09 Fair CLR 28.7 22.1 68% 32 75.44 0.0
05 21:55 SE 22 G 33 16.09 Fair CLR 29.5 22.1 64% 33 75.41 0.0
05 21:35 SE 24 G 31 16.09 Fair CLR 30 22.1 63% 33 75.39 0.0
05 21:15 SE 11 G 30 16.09 Fair CLR 30.5 22.1 61% 34 75.36 0.0
05 20:55 SE 20 G 37 16.09 Fair CLR 31 22 59% 35 75.31 0.0
05 20:35 SE 20 G 26 16.09 Fair CLR 31.6 22 57% 35 75.31 0.0
05 20:15 SE 20 G 31 16.09 Fair CLR 32.4 22 54% 36 75.26 0.0
05 19:55 SE 17 G 31 16.09 Fair CLR 33.3 21.6 50% 37 75.23 0.0
05 19:35 SE 17 16.09 Fair CLR 34.5 21 45% 38 75.23 0.0
05 19:15 SE 20 G 26 16.09 Fair CLR 35.1 20.5 42% 38 75.23 0.0
05 18:55 SE 19 G 28 16.09 Fair CLR 36 20.1 38.2 33.4 39% 39 75.21 0.0
05 18:35 E 13 16.09 Fair CLR 36.8 18.8 35% 39 75.21 0.0
05 18:15 SE 13 16.09 Fair CLR 37.6 18.7 33% 40 75.21 0.0
05 17:55 SE 9 16.09 Fair CLR 37.7 18.6 33% 40 75.21 0.0
05 17:35 SE 13 16.09 Fair CLR 38.1 18.4 31% 40 75.21 0.0
05 17:15 SE 15 16.09 Fair CLR 37.9 18.3 32% 40 75.21 0.0
05 16:55 SE 13 16.09 Fair CLR 38 18.4 32% 40 75.21 0.0
05 16:35 S 13 G 30 16.09 Fair CLR 37.5 18.2 32% 39 75.23 0.0
05 16:15 SE 13 16.09 Fair CLR 38.2 18.6 32% 40 75.29 0.0
05 15:55 S 13 16.09 Fair CLR 38.1 18.6 32% 40 75.29 0.0
05 15:35 SE 7 16.09 Fair CLR 37.4 18.9 34% 40 75.31 0.0
05 15:15 E 13 16.09 Fair CLR 37 18.9 35% 39 75.34 0.0
05 14:55 SE 15 G 26 16.09 Fair CLR 36.9 19.2 35% 39 75.36 0.0
05 14:35 SE 13 16.09 Fair CLR 35.7 19.3 38% 38 75.39 0.0
05 14:15 S 6 G 17 16.09 Fair CLR 35.3 19.5 39% 38 75.41 0.0
05 13:55 S 17 G 28 16.09 Fair CLR 34.8 19.9 42% 37 75.44 0.0
05 13:35 SE 9 16.09 Fair CLR 34.5 19.9 42% 37 75.44 0.0
05 13:15 SE 11 G 31 16.09 Fair CLR 33.8 19.7 43% 36 75.49 0.0
05 12:55 S 15 G 28 16.09 Fair CLR 33.3 20 33.5 21.6 46% 36 75.51 0.0
05 12:35 S 15 G 30 16.09 Fair CLR 33 20.1 47% 35 75.54 0.0
05 12:15 SE 17 16.09 Fair CLR 32.5 20.3 49% 35 75.54 0.0
05 11:55 SE 9 G 26 16.09 Fair CLR 31.5 20.5 52% 34 75.57 0.0
05 11:35 SE 11 G 26 16.09 Fair CLR 30.6 20.7 56% 33 75.57 0.0
05 11:15 SE 17 G 26 16.09 Fair CLR 30.1 20.9 58% 33 75.57 0.0
05 10:55 SE 19 G 30 16.09 Fair CLR 29.1 21 62% 31 75.59 0.0
05 10:35 SE 15 16.09 Fair CLR 28.6 21 64% 31 75.57 0.0
05 10:15 S 19 G 26 16.09 Partly Cloudy SCT019 27.8 21 67% 30 75.59 0.0
05 09:55 SE 13 16.09 Mostly Cloudy BKN017 27.1 21.2 70% 29 75.62 0.0
05 09:15 SE 13 16.09 Mostly Cloudy BKN011 25.2 21.5 80% 26 75.62 0.0
05 08:55 S 11 16.09 Overcast OVC009 24.3 21.5 84% 25 75.62 0.0
05 08:15 SE 7 16.09 Partly Cloudy SCT013 23.1 21.6 91% 75.59 0.0
05 07:55 SE 9 16.09 Mostly Cloudy BKN013 22.6 21.5 94% 75.57 0.0
05 07:35 SE 6 16.09 Overcast OVC013 22.2 21.3 95% 75.57 0.0
05 07:15 SE 6 11.27 Overcast OVC013 22 21.2 95% 75.57 0.0
05 06:55 SE 6 16.09 Mostly Cloudy BKN013 21.6 20.8 23.5 21.6 95% 75.57 0.0
05 06:35 Calm 16.09 Fair CLR 21.8 20.9 95% 75.57 0.0
05 06:15 SE 6 16.09 Fair CLR 22 20.8 93% 75.57 0.0
05 05:55 SE 7 16.09 Fair CLR 22.2 20.8 92% 75.57 0.0
05 05:35 S 11 16.09 Fair CLR 22.5 20.8 90% 75.54 0.0
05 04:55 SE 11 16.09 Fair CLR 22.5 20.7 90% 75.57 0.0
05 04:35 SE 9 16.09 Fair CLR 22.5 20.6 89% 75.59 0.0
05 04:15 SE 7 16.09 Fair CLR 22.6 20.5 88% 75.59 0.0
05 03:55 SE 9 16.09 Fair CLR 22.7 20.3 86% 75.62 0.0
05 03:35 SE 7 16.09 Partly Cloudy SCT017 23 20.3 85% 75.62 0.0
05 03:15 SE 9 16.09 Overcast OVC017 23.5 20.3 82% 75.62 0.0
05 02:55 SE 11 16.09 Overcast OVC017 23.5 20.3 82% 75.64 0.0
05 02:35 SE 11 16.09 Overcast OVC017 23.5 20.2 82% 75.67 0.0
05 02:15 SE 11 16.09 Overcast OVC017 23.5 20.1 81% 75.69 0.0
05 01:55 SE 13 16.09 Overcast OVC017 23.3 20 82% 75.69 0.0
05 01:35 SE 11 16.09 Mostly Cloudy BKN017 23.2 20 82% 75.72 0.0
05 01:15 SE 11 16.09 Partly Cloudy SCT017 23.4 19.9 81% 75.74 0.0
05 00:55 SE 11 16.09 Mostly Cloudy BKN017 23.5 19.8 28.9 23.5 80% 75.72 0.0
05 00:35 SE 15 16.09 Fair CLR 23.6 19.7 79% 75.74 0.0
05 00:15 SE 15 G 26 16.09 Fair CLR 23.8 19.6 77% 75.74 0.0
04 23:55 SE 19 G 26 16.09 Fair CLR 24 19.6 77% 25 75.79 0.0
04 23:35 SE 15 G 28 16.09 Fair CLR 24.3 19.6 75% 25 75.79 0.0
04 23:15 SE 19 G 26 16.09 Fair CLR 24.5 19.5 74% 25 75.77 0.0
04 22:55 SE 19 G 28 16.09 Fair CLR 24.9 19.5 72% 26 75.77 0.0
04 22:35 SE 15 16.09 Fair CLR 25.1 19.4 71% 26 75.77 0.0
04 22:15 SE 15 G 28 16.09 Fair CLR 25.5 19.4 69% 27 75.74 0.0
04 21:55 SE 13 G 28 16.09 Fair CLR 25.8 19.4 68% 27 75.74 0.0
04 21:35 SE 17 16.09 Fair CLR 26.1 19.3 66% 27 75.74 0.0
04 21:15 SE 13 16.09 Fair CLR 26.5 19.4 65% 28 75.72 0.0
04 20:55 SE 9 16.09 Fair CLR 26.7 19.3 64% 28 75.72 0.0
04 20:35 SE 13 16.09 Fair CLR 27 19.2 62% 28 75.69 0.0
04 20:15 SE 9 G 26 16.09 Fair CLR 27.5 19.1 60% 29 75.69 0.0
04 19:55 SE 15 G 26 16.09 Fair CLR 27.9 19 58% 29 75.67 0.0
04 19:15 SE 13 G 26 16.09 Partly Cloudy SCT041 28.5 19 56% 30 75.69 0.0
04 18:55 SE 11 16.09 Partly Cloudy SCT041 29 19 30.1 26.1 55% 30 75.69 0.0
04 18:35 SE 17 G 26 16.09 Partly Cloudy SCT041 29.7 18.8 52% 31 75.69 0.0
04 18:15 SE 15 G 30 16.09 Partly Cloudy SCT041 29.8 18.8 52% 31 75.72 0.0
04 17:55 SE 13 16.09 Partly Cloudy SCT041 29.4 18.6 52% 31 75.74 0.0
04 17:35 SE 15 G 26 16.09 Partly Cloudy SCT041 29.8 18.6 51% 31 75.74 0.0
04 17:15 SE 11 G 26 16.09 Mostly Cloudy BKN041 29.5 18.2 51% 30 75.77 0.0
04 16:55 SE 19 16.09 Mostly Cloudy BKN041 29.8 18.5 51% 31 75.77 0.0
04 16:35 SE 13 16.09 Mostly Cloudy BKN041 29.5 18.5 52% 31 75.77 0.0
04 16:15 SE 13 16.09 Partly Cloudy SCT041 29.7 18.4 51% 31 75.77 0.0
04 15:55 SE 17 G 35 16.09 Mostly Cloudy BKN041 29.1 18.6 53% 30 75.82 0.0
04 15:35 SE 22 G 30 16.09 Mostly Cloudy BKN041 29.7 18.1 50% 31 75.82 0.0
04 15:15 SE 17 G 31 16.09 Mostly Cloudy BKN039 28.7 18.2 53% 30 75.87 0.0
04 14:55 SE 19 G 28 16.09 Mostly Cloudy BKN041 28.5 18.1 53% 29 75.9 0.0
04 14:35 SE 15 G 30 16.09 Overcast OVC040 28.6 18.2 53% 30 75.9 0.0
04 14:15 S 15 16.09 Overcast BKN037 OVC044 27.9 18.1 55% 29 75.92 0.0
04 13:55 SE 11 16.09 Overcast OVC035 26.7 17.9 59% 28 75.95 0.0
04 13:35 S 9 16.09 Overcast BKN033 OVC044 27 18 58% 28 75.95 0.0
04 13:15 S 17 G 26 16.09 Overcast OVC033 26.3 17.6 59% 27 75.97 0.0
04 12:55 S 17 G 26 16.09 Overcast OVC033 26.1 17.6 26.5 17.8 60% 27 75.97 0.0
04 12:35 S 9 16.09 Overcast OVC035 25.7 17.7 61% 27 76 0.0
04 12:15 S 17 G 28 16.09 Overcast OVC031 25.5 17.5 61% 26 76 0.0
04 11:55 S 13 16.09 Overcast BKN031 OVC037 25 17.5 63% 26 76.05 0.0
04 11:35 S 17 16.09 Overcast OVC035 25.2 17.5 62% 26 76.05 0.0
04 11:15 S 20 G 30 16.09 Overcast SCT030 OVC037 25 17.3 62% 26 76.05 0.0
04 10:55 S 19 G 26 16.09 Overcast BKN028 OVC035 24.9 17.5 64% 26 76.05 0.0
04 10:35 S 22 G 30 16.09 Overcast BKN028 OVC035 24.4 17.6 66% 25 76.05 0.0
04 10:15 S 19 G 30 16.09 Overcast SCT024 OVC033 24.3 17.6 66% 25 76.07 0.0
04 09:55 S 20 G 33 16.09 Overcast BKN024 OVC029 24.2 17.7 67% 25 76.07 0.0
04 09:35 S 20 G 30 16.09 Mostly Cloudy BKN020 BKN025 BKN035 23.5 18 71% 76.07 0.0
04 09:15 SE 19 G 28 16.09 Mostly Cloudy BKN015 23.1 18.2 74% 76.07 0.0
04 08:55 S 11 16.09 Mostly Cloudy BKN013 22.3 18 77% 76.07 0.0
04 08:35 SE 6 16.09 Overcast OVC017 20.5 16.9 80% 76.07 0.0
04 08:15 SE 6 16.09 Overcast OVC019 19.5 16.4 82% 76.07 0.0
04 07:55 SE 7 16.09 Overcast OVC019 19.1 16.2 83% 76.1 0.0
04 07:35 SE 6 16.09 Overcast BKN019 OVC025 18.5 15.8 84% 76.07 0.0
04 07:15 Calm 16.09 Mostly Cloudy BKN019 BKN025 18 15.5 85% 76.07 0.0
04 06:55 Calm 16.09 Mostly Cloudy SCT019 BKN025 17.8 15.4 20.5 16.8 86% 76.07 0.0
04 06:35 Calm 16.09 Overcast SCT020 OVC025 17.8 15.1 84% 76.07 0.0
04 06:15 Calm 16.09 Mostly Cloudy SCT021 BKN027 17.2 14.9 86% 76.07 0.0
04 05:55 Calm 16.09 Fair CLR 17 14.5 85% 76.1 0.0
04 05:35 Calm 16.09 Fair CLR 17 14.5 85% 76.12 0.0
04 05:15 Calm 16.09 Fair CLR 17.5 14.6 83% 76.1 0.0
04 04:55 Calm 16.09 Partly Cloudy SCT021 17.5 14.6 83% 76.12 0.0
04 04:35 Calm 16.09 Fair CLR 17.5 14.5 83% 76.15 0.0
04 04:15 Calm 16.09 Fair CLR 18 14.6 81% 76.15 0.0
04 03:55 Calm 16.09 Fair CLR 18.1 14.5 80% 76.15 0.0
04 03:35 E 6 16.09 Fair CLR 18.4 14.5 78% 76.15 0.0
04 03:15 SE 6 16.09 Fair CLR 18.7 14.5 77% 76.15 0.0
04 02:55 SE 6 16.09 Fair CLR 19 14.5 75% 76.15 0.0
04 02:35 SE 7 16.09 Fair CLR 19.5 14.5 73% 76.2 0.0
04 02:15 SE 9 16.09 Fair CLR 19.6 14.3 72% 76.2 0.0
Date Time (cdt) Wind (kph) Vis. (km) Weather Sky Cond. Air Dwpt Max. Min. Relative Humidity Wind Chill (°C) Heat Index (°C) altimeter (cm) sea level (mb) 1 hr 3 hr 6 hr
6 hour
Temperature (ºC) Pressure Precipitation (cm)